Flag for Italy Weather past 2 weeks in Cagliari, Italy

Now
54 °F

Passing clouds.


Feels Like: 49 °F
Forecast: 51 / 67 °F
Wind: 16 mph from Northwest

Location: Cagliari / Elmas

Current Time: Mar 27, 2015 at 5:41:37 AM

Latest Report: Mar 27, 2015 at 4:20 AM


Visibility: N/A

Pressure: 29.83 "Hg

Humidity: 72%

Dew point: 45 °F

Location of CagliariLocation

Historic Weather in Cagliari — Graph

°F

Cagliari temperature yesterday

Maximum temperature yesterday: 59 °F (at 12:20 PM)
Minimum temperature yesterday: 52 °F (at 1:50 AM)
Average temperature yesterday: 55 °F

Past Weeks' High & Low Weather Summary

 TemperatureHumidityPressure
High64 °F (Mar 12, 2:20 PM)100% (Mar 12, 3:50 AM)30.18 "Hg (Mar 12, 3:50 AM)
Low37 °F (Mar 13, 4:50 AM)34% (Mar 13, 11:50 AM)29.27 "Hg (Mar 25, 4:50 AM)
Average56 °F84%29.94 "Hg
* Reported Mar 12 3:20 AM — Mar 27 3:50 AM, Cagliari, Weather by CustomWeather, © 2015

Note: Actual official high and low records may vary slightly from our data, if they occured in-between our weather recording intervals... More about our weather records

Advertising

Cagliari weather history for previous 24 hours

 ConditionsComfort  
Time TempWeatherWind HumidityBarometerVisibility
3:50 AM
Fri, Mar 27
54 °FPassing clouds.15 mph72%29.83 "HgN/A
3:20 AM54 °FPassing clouds.17 mph72%29.83 "HgN/A
2:50 AM54 °FPassing clouds.17 mph72%29.83 "HgN/A
2:20 AM54 °FPassing clouds.16 mph72%29.83 "HgN/A
1:50 AM54 °FPassing clouds.16 mph72%29.83 "HgN/A
1:20 AM54 °FPassing clouds.16 mph72%29.86 "HgN/A
12:50 AM54 °FPassing clouds.16 mph72%29.86 "HgN/A
12:20 AM54 °FPassing clouds.16 mph72%29.86 "HgN/A
11:50 PM
Thu, Mar 26
54 °FPassing clouds.16 mph72%29.86 "HgN/A
11:20 PM54 °FPassing clouds.16 mph72%29.86 "HgN/A
10:50 PM54 °FPassing clouds.18 mph72%29.86 "HgN/A
9:50 PM54 °FPassing clouds.14 mph77%29.86 "HgN/A
9:20 PM54 °FPassing clouds.14 mph77%29.83 "HgN/A
8:50 PM54 °FPassing clouds.15 mph77%29.83 "HgN/A
8:20 PM54 °FPassing clouds.16 mph77%29.83 "HgN/A
7:50 PM54 °FPassing clouds.15 mph77%29.80 "HgN/A
7:20 PM54 °FPassing clouds.13 mph77%29.80 "HgN/A
6:50 PM54 °FPassing clouds.18 mph77%29.77 "HgN/A
6:20 PM54 °FPassing clouds.17 mph82%29.77 "HgN/A
5:50 PM55 °FPartly sunny.16 mph77%29.74 "HgN/A
5:20 PM55 °FScattered showers. Partly sunny.15 mph77%29.74 "HgN/A
4:50 PM55 °FPartly sunny.18 mph77%29.74 "HgN/A
4:20 PM57 °FScattered clouds.17 mph72%29.74 "HgN/A
3:50 PM57 °FScattered clouds.20 mph72%29.71 "HgN/A
3:20 PM57 °FScattered clouds.20 mph72%29.71 "HgN/A
2:50 PM57 °FPassing clouds.18 mph72%29.71 "HgN/A
2:20 PM59 °FPassing clouds.18 mph68%29.71 "HgN/A
1:50 PM59 °FPassing clouds.16 mph68%29.71 "HgN/A
1:20 PM59 °FScattered clouds.16 mph68%29.71 "HgN/A
12:50 PM59 °FScattered clouds.17 mph68%29.71 "HgN/A
12:20 PM59 °FPassing clouds.16 mph68%29.71 "HgN/A
11:50 AM57 °FPassing clouds.17 mph72%29.71 "HgN/A
11:20 AM57 °FPassing clouds.18 mph77%29.71 "HgN/A
10:50 AM57 °FPassing clouds.17 mph77%29.71 "HgN/A
10:20 AM57 °FPassing clouds.17 mph77%29.71 "HgN/A
9:50 AM57 °FPassing clouds.18 mph77%29.71 "HgN/A
9:20 AM55 °FSunny.12 mph82%29.71 "Hg10 mi
8:50 AM54 °FSunny.12 mph82%29.68 "Hg10 mi
8:20 AM54 °FPassing clouds.9 mph82%29.68 "HgN/A
7:50 AM52 °FPassing clouds.10 mph88%29.68 "HgN/A
7:20 AM52 °FPassing clouds.10 mph88%29.68 "HgN/A
6:50 AM52 °FPassing clouds.9 mph88%29.65 "HgN/A
6:20 AM52 °FPassing clouds.9 mph88%29.65 "HgN/A
5:50 AM52 °FPassing clouds.12 mph88%29.62 "HgN/A
5:20 AM52 °FPassing clouds.10 mph88%29.62 "HgN/A
Weather by CustomWeather, © 2015

See weather overviewHow to use our weather pages